Wind_Speed
33 29 26 23 21 20 18 17 16 15 14 13 12 11 10 9 7 6 5 4 3 2 2 2 2 1 1 1 1 1 1 1 1 2 2 3 4 6 7 8 9 10 12
35 32 28 26 23 22 20 19 18 16 15 14 13 12 11 10 8 7 6 5 4 3 3 3 2 2 2 2 1 2 2 2 2 2 3 4 5 6 7 8 9 11 12
37 34 31 28 26 23 22 20 19 17 16 16 15 13 12 11 10 8 7 6 5 4 4 3 3 3 3 3 3 3 3 3 3 3 4 5 6 7 8 9 10 12 13
39 36 33 31 28 26 24 22 20 19 18 17 16 14 13 12 11 10 9 7 6 5 5 4 4 4 4 4 4 4 4 4 4 4 5 5 6 7 8 9 11 12 13
41 39 36 33 30 28 26 24 22 21 20 19 18 16 15 14 12 11 10 9 7 7 6 5 5 5 5 5 5 5 5 5 5 5 6 6 7 8 9 10 11 12 14
44 41 38 35 32 30 28 26 24 23 22 21 19 18 17 16 14 13 12 10 9 8 7 7 6 6 6 5 5 5 6 6 6 6 6 7 8 9 10 11 12 13 14
46 44 41 37 35 32 30 28 26 25 23 22 21 20 19 17 16 15 13 12 11 10 9 8 7 7 7 7 7 7 7 7 7 7 8 8 9 10 11 12 13 14 15
48 46 43 40 38 35 33 30 29 27 25 24 23 22 20 19 18 16 15 14 13 12 11 10 9 9 8 8 8 8 8 9 9 9 9 10 11 11 12 13 14 16 17
49 48 45 43 40 37 35 33 31 29 28 26 25 23 22 21 19 18 17 15 14 13 12 11 11 10 10 10 10 10 10 10 10 10 11 12 12 13 14 15 16 17 18
51 49 48 45 42 40 37 35 33 32 30 28 27 26 24 23 21 20 19 17 16 15 14 13 13 12 12 12 12 12 12 12 12 13 13 13 14 15 16 17 18 19 20
53 50 49 47 45 42 40 37 35 34 32 31 29 28 26 25 24 22 21 20 18 17 16 15 15 14 14 14 14 14 14 14 14 15 15 15 16 17 18 19 20 21 22
55 53 50 48 47 45 42 40 38 36 34 32 31 30 28 27 25 24 23 21 20 19 18 18 17 16 16 16 16 16 16 16 16 16 17 17 18 19 20 21 22 23 24
56 55 52 50 48 46 44 42 40 38 36 34 33 32 30 28 27 26 24 23 22 21 20 20 19 19 18 18 18 18 18 18 18 18 19 20 20 21 22 24 25 26 27
56 53 52 52 50 48 46 44 42 40 38 36 34 33 31 30 29 27 26 25 24 23 22 21 21 21 20 20 20 20 20 20 20 21 21 22 23 24 25 26 27 28 29
56 52 52 52 52 48 47 46 44 42 40 38 36 35 33 32 30 29 28 27 26 25 24 23 23 23 23 22 22 23 23 23 23 23 24 25 26 26 27 28 29 30 31
53 52 52 52 51 50 47 46 45 43 42 40 38 37 35 34 32 31 30 29 28 27 26 25 25 25 25 25 25 25 25 25 25 26 26 27 28 29 29 30 31 32 33
52 52 52 52 51 51 49 47 46 44 42 41 39 38 37 35 34 33 32 31 30 29 28 28 27 27 27 27 27 27 27 27 27 28 28 29 30 31 31 32 33 34 35
50 49 50 51 51 50 49 48 47 46 43 41 40 39 38 37 35 34 33 32 32 31 31 30 29 29 29 29 29 29 29 29 30 30 31 32 32 33 34 35 35 36 37
46 47 49 49 50 49 48 48 47 47 45 43 41 41 39 37 36 36 35 34 34 33 33 33 32 32 32 32 32 32 32 32 32 33 33 34 35 36 37 37 38 38 39
43 44 46 47 48 48 48 48 48 48 46 44 42 41 39 38 37 37 37 37 36 36 35 35 35 35 34 34 34 34 34 34 34 34 35 35 36 37 38 39 39 40 40
40 39 41 43 45 47 48 47 47 48 46 45 44 43 41 40 39 38 37 37 38 38 37 37 37 37 36 36 36 36 36 36 36 37 37 37 38 38 39 40 41 41 42
36 35 36 38 43 45 46 45 45 46 46 45 44 44 43 42 41 40 40 39 39 39 39 39 39 38 38 38 37 37 37 37 37 38 39 39 40 41 41 42 42 42 43
33 32 33 36 38 41 44 44 43 45 46 46 45 44 44 44 43 43 42 41 41 41 41 40 40 39 38 38 38 39 39 39 39 39 40 41 41 42 42 43 43 44 44
31 31 32 34 35 38 41 44 43 44 45 45 45 45 45 45 44 43 43 42 41 41 41 41 41 40 39 39 40 40 40 40 40 40 40 41 42 43 44 44 45 45 46
30 31 32 34 35 36 40 42 43 44 44 45 45 45 45 45 44 44 43 43 43 43 42 42 41 41 40 41 41 41 41 41 42 42 42 43 43 44 45 45 46 46 46
29 30 30 32 35 36 37 40 41 42 42 43 43 44 44 45 44 44 44 43 43 42 41 41 41 42 41 41 40 41 42 42 43 43 43 44 44 44 45 46 47 47 47
Wind_Direction
227 227 227 227 227 227 225 224 223 224 225 224 224 226 229 229 228 228 235 242 248 262 282 295 298 311 314 299 275 273 268 253 288 325 334 342 346 348 351 353 355 356 357
226 226 226 227 227 227 226 224 224 225 226 225 225 227 229 229 229 231 238 242 249 258 270 277 281 284 282 281 272 270 268 270 284 306 322 331 335 339 344 346 349 350 351
225 225 225 226 227 227 226 225 224 225 226 226 226 227 228 230 230 234 239 243 249 254 261 268 271 271 273 275 274 273 272 276 286 299 311 321 328 335 339 342 344 345 346
224 224 225 225 226 226 226 226 225 225 226 226 226 227 229 230 231 234 239 242 246 251 258 264 267 269 270 271 271 271 274 278 285 295 305 315 323 329 334 336 338 340 341
223 223 224 225 225 225 226 226 226 225 226 226 227 227 229 231 232 234 237 239 243 248 254 259 262 265 266 267 268 269 271 276 283 291 299 308 315 322 326 329 332 334 335
223 222 223 224 224 224 225 226 226 226 226 226 227 228 230 232 233 234 237 239 241 245 250 255 258 261 262 264 266 267 271 275 281 287 295 301 308 314 319 322 325 327 329
222 222 222 223 223 224 224 225 226 226 227 227 228 230 231 233 234 236 237 239 241 243 246 250 254 257 258 261 262 265 269 274 278 284 290 295 301 306 311 315 319 321 323
221 222 223 223 223 224 224 225 225 226 227 227 228 230 232 233 234 236 237 239 241 244 245 247 252 255 257 259 260 263 266 271 275 279 284 290 296 301 305 309 313 316 318
220 221 222 223 223 224 224 224 225 226 227 228 229 230 232 233 234 236 238 239 243 245 247 248 251 254 257 259 261 263 265 268 270 274 279 286 292 297 301 305 308 311 313
218 219 221 222 223 223 223 224 225 226 227 228 229 230 232 233 234 236 238 240 242 245 247 249 251 253 256 259 261 263 264 266 268 272 277 282 288 293 297 300 303 306 309
218 219 219 221 222 222 223 224 225 227 228 229 230 231 232 233 235 236 238 240 242 244 246 248 250 253 255 258 260 261 263 265 268 272 276 281 286 290 293 297 300 303 306
218 218 218 219 221 222 223 224 225 227 228 229 230 231 232 233 235 236 238 240 242 244 246 248 251 253 256 258 260 261 262 264 268 272 275 280 284 288 291 294 297 300 303
215 217 218 218 219 221 222 223 224 226 228 229 230 231 232 234 235 236 238 240 242 245 246 249 251 254 256 258 259 260 262 264 267 271 275 279 282 286 290 293 295 298 300
213 215 216 216 217 220 221 222 223 225 227 228 230 231 232 234 235 237 239 241 243 245 247 249 252 254 256 258 259 261 263 265 267 270 274 278 282 285 288 291 294 296 298
213 215 215 216 216 218 220 222 223 224 226 228 229 230 233 234 235 237 239 242 244 246 248 250 252 255 257 258 260 262 264 266 268 271 275 278 282 285 289 292 294 295 297
212 215 216 216 215 217 218 220 223 224 226 229 230 231 233 234 236 238 240 242 245 247 249 251 253 256 258 259 260 263 265 267 270 273 276 279 282 285 288 291 293 295 297
213 215 214 214 215 216 217 219 222 223 225 229 231 232 233 234 237 239 241 243 245 248 250 252 254 256 258 260 261 264 266 269 271 274 277 279 282 285 288 290 292 294 296
215 217 214 214 216 216 217 219 221 222 224 228 230 231 232 234 237 240 242 245 247 248 251 253 254 256 259 260 262 264 267 269 272 274 277 280 283 285 288 290 292 294 296
216 217 214 215 215 217 218 220 221 222 224 227 230 232 234 237 239 242 244 247 249 250 252 254 255 257 258 261 263 266 268 270 273 275 278 281 283 285 287 289 292 293 295
214 215 214 215 217 218 219 222 222 223 224 227 230 232 234 237 240 243 245 248 250 252 253 255 256 258 260 262 264 267 270 272 275 277 279 282 284 285 287 289 291 293 294
214 214 215 219 221 222 221 223 225 226 227 229 231 232 234 237 240 242 245 247 250 252 253 255 257 259 261 263 265 268 271 273 276 278 280 282 284 286 288 290 291 293 294
213 216 218 220 223 223 224 225 227 228 229 231 233 234 236 239 241 242 245 249 251 252 254 256 257 260 263 265 267 269 272 274 277 279 281 282 284 286 288 290 291 293 294
219 221 223 222 225 226 226 228 230 231 232 233 234 236 238 241 243 244 247 250 251 253 255 257 259 261 262 265 268 270 272 275 277 279 281 283 285 286 288 289 291 292 293
224 222 223 223 224 227 229 230 230 232 233 234 237 240 242 243 244 245 248 250 251 253 256 257 259 262 264 266 269 271 273 276 278 278 280 283 285 286 288 289 290 292 293
225 225 226 225 226 229 231 232 234 236 237 237 239 241 243 245 247 248 250 251 252 254 256 256 259 262 265 267 269 272 274 277 278 279 280 282 284 286 288 289 290 291 291
230 233 231 229 231 235 235 235 237 238 239 241 242 244 245 247 250 252 254 254 255 255 256 257 261 264 266 267 270 273 276 278 279 280 282 283 284 286 287 288 289 290 291
Height
5863 5866 5868 5870 5872 5873 5874 5875 5876 5877 5878 5878 5879 5879 5880 5880 5880 5880 5880 5880 5880 5879 5879 5879 5879 5879 5878 5878 5878 5878 5878 5877 5877 5877 5877 5876 5875 5875 5874 5873 5871 5870 5869
5859 5862 5865 5867 5869 5870 5872 5873 5874 5875 5876 5876 5877 5878 5878 5879 5879 5879 5879 5879 5879 5879 5879 5878 5878 5878 5878 5878 5877 5877 5877 5877 5877 5876 5876 5876 5875 5874 5873 5872 5871 5869 5868
5854 5857 5860 5863 5865 5867 5869 5870 5871 5873 5874 5875 5875 5876 5877 5877 5877 5878 5878 5878 5878 5878 5878 5877 5877 5877 5877 5877 5877 5877 5876 5876 5876 5876 5875 5875 5874 5873 5872 5871 5870 5869 5867
5848 5852 5856 5859 5861 5864 5866 5867 5869 5870 5871 5872 5873 5874 5875 5875 5876 5876 5876 5877 5877 5877 5876 5876 5876 5876 5876 5876 5876 5876 5876 5875 5875 5875 5874 5874 5873 5872 5871 5870 5869 5868 5866
5842 5846 5850 5854 5857 5859 5862 5864 5866 5867 5868 5870 5871 5872 5872 5873 5874 5874 5875 5875 5875 5875 5875 5875 5875 5875 5875 5875 5875 5875 5874 5874 5874 5874 5873 5873 5872 5871 5870 5869 5868 5867 5865
5837 5841 5845 5849 5852 5855 5858 5860 5862 5864 5865 5867 5868 5869 5870 5871 5872 5872 5873 5873 5873 5873 5874 5874 5874 5874 5874 5873 5873 5873 5873 5873 5873 5872 5872 5871 5871 5870 5869 5868 5867 5865 5864
5830 5835 5839 5843 5847 5850 5853 5856 5858 5860 5862 5863 5865 5866 5867 5868 5869 5870 5870 5871 5871 5871 5872 5872 5872 5872 5872 5872 5872 5872 5872 5872 5871 5871 5870 5870 5869 5868 5867 5866 5865 5864 5862
5824 5829 5833 5838 5842 5845 5848 5851 5854 5856 5858 5860 5861 5863 5864 5865 5866 5867 5868 5868 5869 5869 5869 5870 5870 5870 5870 5870 5870 5870 5870 5870 5869 5869 5868 5868 5867 5866 5865 5864 5863 5861 5860
5816 5822 5827 5831 5835 5839 5843 5846 5849 5851 5853 5856 5857 5859 5861 5862 5863 5864 5865 5866 5866 5867 5867 5867 5867 5868 5868 5868 5868 5868 5868 5868 5867 5867 5866 5866 5865 5864 5863 5862 5861 5859 5857
5808 5814 5820 5825 5829 5834 5837 5841 5844 5846 5849 5851 5853 5855 5857 5858 5859 5861 5862 5863 5863 5864 5864 5865 5865 5865 5865 5866 5866 5866 5865 5865 5865 5865 5864 5864 5863 5862 5861 5859 5858 5856 5854
5800 5806 5812 5818 5823 5827 5831 5835 5838 5841 5844 5846 5849 5851 5852 5854 5856 5857 5858 5859 5860 5861 5861 5862 5862 5862 5862 5863 5863 5863 5863 5863 5862 5862 5862 5861 5860 5859 5858 5856 5855 5853 5851
5792 5798 5804 5811 5816 5821 5825 5829 5832 5836 5839 5842 5844 5846 5848 5850 5851 5853 5854 5855 5856 5857 5858 5858 5859 5859 5859 5860 5860 5860 5860 5859 5859 5859 5859 5858 5857 5856 5855 5853 5852 5850 5848
5783 5789 5796 5803 5808 5814 5818 5823 5827 5830 5833 5836 5839 5841 5843 5845 5847 5848 5850 5851 5852 5853 5854 5854 5855 5855 5856 5856 5856 5856 5856 5856 5856 5855 5855 5854 5853 5852 5851 5849 5848 5846 5844
5774 5781 5787 5794 5800 5806 5811 5816 5820 5824 5827 5831 5833 5836 5838 5840 5842 5844 5845 5846 5847 5849 5850 5850 5851 5851 5851 5852 5852 5852 5852 5852 5852 5851 5851 5850 5849 5848 5846 5845 5843 5841 5839
5766 5773 5779 5785 5793 5798 5804 5809 5813 5817 5821 5824 5827 5830 5833 5835 5837 5839 5840 5842 5843 5844 5845 5845 5846 5847 5847 5847 5848 5848 5848 5847 5847 5847 5846 5845 5844 5843 5842 5840 5838 5836 5834
5759 5766 5772 5778 5785 5791 5796 5802 5806 5811 5814 5818 5821 5824 5827 5829 5831 5833 5835 5837 5838 5839 5840 5841 5841 5842 5842 5843 5843 5843 5843 5842 5842 5841 5841 5840 5839 5838 5836 5835 5832 5830 5828
5751 5758 5764 5770 5776 5783 5789 5794 5799 5803 5808 5812 5815 5818 5821 5823 5826 5828 5830 5831 5833 5834 5835 5835 5836 5836 5837 5837 5837 5837 5837 5837 5837 5836 5835 5834 5833 5832 5830 5828 5826 5824 5822
5744 5751 5757 5762 5769 5775 5781 5786 5791 5796 5801 5805 5808 5811 5814 5817 5819 5822 5824 5825 5827 5828 5829 5830 5830 5831 5831 5832 5832 5832 5832 5831 5831 5830 5829 5828 5827 5825 5824 5822 5820 5817 5815
5738 5745 5750 5756 5763 5769 5774 5779 5784 5789 5793 5797 5801 5805 5807 5810 5813 5815 5818 5819 5821 5822 5823 5824 5824 5825 5825 5826 5826 5826 5825 5825 5824 5824 5823 5822 5820 5819 5817 5815 5813 5810 5808
5733 5739 5745 5751 5757 5762 5767 5773 5777 5782 5786 5790 5794 5797 5800 5803 5806 5808 5810 5812 5814 5816 5817 5817 5818 5818 5819 5819 5819 5819 5819 5818 5818 5817 5815 5814 5813 5811 5809 5807 5805 5803 5800
5729 5735 5740 5746 5751 5756 5761 5766 5771 5775 5779 5783 5787 5790 5793 5796 5798 5801 5803 5805 5807 5808 5809 5810 5810 5811 5811 5812 5812 5812 5812 5811 5810 5809 5808 5806 5805 5803 5801 5799 5797 5795 5792
5724 5730 5735 5740 5745 5750 5756 5760 5765 5768 5772 5776 5779 5782 5785 5788 5791 5793 5795 5797 5798 5800 5801 5802 5803 5803 5804 5804 5805 5804 5804 5804 5803 5801 5800 5798 5797 5795 5793 5791 5789 5786 5783
5719 5725 5729 5735 5740 5745 5749 5753 5757 5762 5765 5769 5772 5775 5778 5780 5783 5785 5787 5789 5790 5792 5793 5794 5795 5795 5796 5796 5797 5797 5796 5796 5795 5794 5792 5790 5788 5786 5784 5782 5780 5777 5774
5714 5720 5725 5730 5734 5739 5743 5747 5751 5755 5758 5762 5765 5767 5770 5772 5775 5777 5779 5781 5782 5783 5785 5786 5786 5787 5788 5788 5788 5788 5788 5787 5786 5786 5784 5782 5780 5778 5776 5773 5771 5768 5765
5710 5715 5719 5724 5728 5733 5737 5741 5745 5748 5751 5754 5757 5759 5761 5764 5766 5768 5770 5772 5774 5775 5776 5777 5778 5778 5779 5779 5779 5779 5778 5778 5777 5776 5775 5773 5771 5769 5766 5764 5761 5759 5756
5705 5709 5713 5718 5722 5726 5730 5734 5737 5741 5744 5746 5748 5751 5753 5756 5758 5760 5762 5764 5765 5766 5767 5768 5769 5769 5770 5770 5770 5770 5769 5769 5768 5766 5765 5763 5762 5759 5757 5754 5751 5748 5746